Theta_e
308 308 309 310 309 309 310 310 310 311 312 314 316 316 316 316 314 314 318 322 321 322 318 318 321 320 320 320 322 325 322 325 325 329 335 337 336 335 331 332 343 344 343 348 342
308 309 309 309 310 311 311 310 311 312 315 316 315 317 317 314 314 317 323 323 319 316 316 321 322 322 321 321 322 324 321 323 325 327 329 336 334 332 331 340 343 342 342 340 336
309 310 311 311 311 310 311 311 312 314 316 316 317 317 316 316 320 323 325 319 317 318 318 322 322 323 323 322 322 323 322 323 326 325 325 334 333 331 330 327 342 341 338 336 336
311 311 311 311 311 311 312 312 313 315 316 315 317 317 316 316 323 320 320 317 318 319 320 323 323 323 321 318 323 320 324 326 326 325 325 325 334 328 325 329 337 337 335 335 334
311 312 312 312 312 312 312 313 314 316 316 316 317 317 316 319 321 321 317 318 319 320 322 323 324 323 319 322 324 322 323 325 325 325 325 325 326 324 324 333 335 335 333 333 331
310 311 311 311 311 311 311 313 314 316 316 315 317 317 316 321 321 320 319 319 320 322 322 322 323 322 323 323 322 325 325 325 325 325 325 324 323 326 325 325 331 333 333 332 331
311 311 311 311 311 311 311 312 314 317 316 315 317 316 316 321 321 320 320 320 320 320 321 321 322 322 322 320 324 325 322 321 324 325 323 325 322 324 325 324 326 329 330 332 332
310 311 311 312 316 318 315 312 313 316 316 316 317 316 318 323 320 319 320 320 320 319 320 320 321 322 322 323 323 322 321 319 320 322 323 322 319 322 326 324 324 325 326 333 333
311 311 316 318 318 318 319 314 312 313 314 315 316 320 322 324 319 320 320 320 320 320 320 320 320 321 321 319 318 321 318 318 319 321 320 319 320 324 324 323 322 323 324 330 333
312 317 318 319 319 318 318 317 313 313 314 315 316 320 323 323 320 320 320 319 320 320 321 321 321 316 316 317 318 318 319 319 322 321 321 319 320 324 325 325 325 325 324 332 333
314 318 318 319 319 321 322 324 325 321 317 320 324 323 324 322 322 322 321 320 321 321 320 322 318 316 317 319 320 321 321 321 324 324 324 322 321 325 326 326 326 325 325 330 333
316 317 318 319 320 323 324 324 323 323 324 324 324 323 323 322 322 322 322 321 322 321 322 321 320 321 323 322 321 319 319 319 323 325 324 324 324 323 326 326 327 327 326 329 333
315 317 319 319 321 324 324 324 323 323 325 328 326 322 322 321 322 323 322 322 323 321 322 322 323 324 324 322 322 320 321 323 323 326 325 325 324 323 323 326 328 327 326 333 333
317 316 315 318 323 326 325 323 326 326 327 330 323 323 323 323 324 323 323 323 323 323 324 323 324 324 323 322 323 324 323 324 324 323 322 324 320 322 326 324 326 327 329 333 333
319 316 316 315 319 324 323 324 324 327 339 325 324 324 324 323 324 323 323 324 325 324 324 323 324 324 324 325 325 324 323 322 323 320 321 322 324 326 325 327 329 328 329 333 333
318 316 316 324 324 325 324 323 324 331 336 327 324 323 323 324 324 324 323 324 324 325 326 325 326 325 324 325 324 324 322 322 322 320 320 328 330 328 329 330 330 328 329 331 332
313 316 316 318 325 325 324 324 327 331 333 328 324 323 322 323 324 324 324 324 325 327 326 327 326 324 325 325 324 323 324 326 328 325 328 329 331 330 326 325 326 327 329 330 329
312 316 320 320 326 324 324 325 330 331 331 328 327 325 326 327 325 326 325 325 326 328 326 328 328 328 326 326 324 323 325 326 330 329 328 329 329 326 324 324 324 325 328 328 327
312 313 326 328 327 324 325 330 330 332 328 326 325 326 326 326 327 327 327 327 328 326 327 327 327 326 326 326 323 324 322 325 326 326 324 326 330 327 325 324 324 324 323 322 322
311 319 322 328 325 322 326 328 330 329 326 326 326 327 329 329 329 329 329 329 330 327 326 326 327 327 326 326 325 325 322 323 324 328 330 328 331 332 325 322 321 320 321 321 320
311 323 327 327 325 323 326 328 328 325 324 326 327 328 328 329 328 328 329 328 327 326 324 326 328 329 327 328 328 326 326 327 327 326 327 329 328 323 322 321 320 320 320 319 318
312 326 323 324 325 324 322 325 326 328 325 325 325 326 327 329 330 328 328 328 325 325 329 327 328 328 328 326 326 327 328 326 324 326 326 325 324 323 319 321 321 320 319 318 317
310 318 317 321 323 323 327 328 327 326 326 327 327 327 327 328 327 327 328 325 324 327 325 324 327 327 326 327 327 327 327 327 324 323 325 322 323 322 322 322 321 319 318 317 316
316 323 323 321 322 325 326 327 326 324 324 323 324 324 325 326 325 328 327 326 325 322 320 323 325 325 325 325 325 328 327 327 325 323 323 324 325 323 322 322 318 317 318 317 315
318 322 321 322 321 324 323 322 322 324 324 323 324 324 325 327 326 326 328 327 325 321 322 323 327 328 327 327 325 325 325 325 324 323 325 324 325 324 322 316 318 318 317 316 314
319 320 318 317 317 321 322 321 321 322 324 325 325 325 325 327 327 328 328 326 328 325 327 327 327 328 328 327 326 326 325 325 323 322 322 323 322 320 317 319 317 316 315 314 312
320 320 320 320 319 319 320 322 322 323 322 321 323 323 324 325 324 324 323 322 323 324 324 324 325 327 327 326 325 323 326 324 322 322 322 322 319 316 316 317 316 315 314 313 311
Wind_Speed
1 0 2 2 3 3 2 2 2 2 2 1 2 5 8 9 8 8 7 7 8 12 14 2 2 4 8 12 12 18 2 9 13 7 18 29 18 32 12 13 22 14 27 27 23
3 3 3 3 3 2 1 1 2 3 2 1 4 8 10 11 8 10 6 9 13 11 8 6 15 10 9 14 9 4 3 9 10 4 5 34 24 18 10 26 25 28 24 20 22
6 6 5 4 2 1 1 1 2 3 2 2 6 9 11 8 10 11 6 7 6 5 4 4 9 12 14 16 25 19 8 11 15 17 17 23 13 20 15 7 30 30 23 19 14
6 5 5 4 3 2 1 1 2 3 1 3 7 9 10 6 3 4 3 3 2 3 4 6 8 11 7 8 28 8 23 23 6 13 12 1 12 14 20 17 27 26 22 19 12
4 4 3 3 3 3 2 0 2 2 1 4 7 10 7 7 14 5 2 2 2 4 10 12 19 23 8 9 21 7 7 13 7 8 9 10 15 13 19 30 25 24 22 16 20
3 2 2 2 3 3 2 2 3 3 3 5 7 10 6 8 4 1 1 2 3 10 16 20 22 16 13 15 8 4 8 6 1 4 10 4 1 17 16 18 25 22 21 16 26
3 2 2 2 3 3 3 3 4 4 4 6 8 11 9 12 3 2 5 4 9 11 15 15 17 14 21 11 16 16 6 7 4 6 5 4 8 6 22 19 18 15 11 19 26
3 2 2 3 4 4 4 3 4 5 5 7 8 11 10 5 6 7 8 12 8 5 10 11 14 15 16 18 21 5 6 5 8 11 8 12 7 7 18 16 13 19 15 23 25
4 3 3 4 6 5 4 3 4 5 6 9 9 8 11 5 4 4 9 9 10 9 8 10 9 12 21 6 6 5 6 8 10 13 7 7 5 9 17 16 14 15 19 21 29
4 4 4 5 7 5 5 4 4 4 5 10 11 9 8 5 5 4 5 6 6 8 13 14 7 3 6 2 6 9 5 8 8 7 9 7 8 8 20 18 12 9 18 28 34
4 2 4 5 4 3 4 7 5 4 9 10 7 12 11 5 3 4 6 8 10 14 6 17 3 8 14 12 11 7 5 8 7 6 5 7 5 8 19 15 15 17 17 24 36
5 2 3 3 2 3 7 7 10 8 12 16 18 20 10 8 6 6 2 7 10 8 9 6 9 14 5 3 6 8 8 9 3 5 4 6 5 6 9 18 22 19 18 20 38
8 5 4 4 5 6 9 7 12 9 6 16 21 13 10 7 14 9 1 11 8 8 10 5 4 8 7 7 8 6 4 6 6 4 4 3 5 8 10 13 24 13 6 34 38
11 6 5 6 8 11 14 8 9 8 2 5 7 6 7 6 8 2 3 8 9 6 4 5 3 5 5 6 5 5 8 9 11 8 2 3 5 4 13 11 7 11 14 33 34
13 7 4 4 8 8 11 11 13 2 3 10 8 9 8 9 6 6 2 6 7 8 6 8 7 9 7 5 7 5 8 7 6 8 6 10 5 6 11 10 16 19 14 28 26
14 7 2 3 7 14 16 11 9 2 5 6 9 8 6 16 9 11 7 4 8 4 8 8 9 3 2 7 7 5 7 8 6 2 4 4 5 5 7 5 5 29 13 17 22
14 7 3 6 5 15 14 11 2 3 5 5 6 7 10 9 7 5 2 5 3 2 4 8 9 8 8 6 7 7 4 4 5 5 4 5 5 3 4 11 12 7 1 31 21
14 9 4 5 5 12 9 4 3 9 4 2 4 7 2 6 4 0 4 4 7 3 5 5 7 7 4 1 2 6 1 4 2 3 4 3 2 4 1 17 23 26 27 21 14
15 8 7 2 3 8 9 1 4 6 5 11 10 4 6 2 4 5 3 4 6 8 4 3 4 14 15 2 5 6 5 3 1 4 3 4 6 8 7 4 14 23 25 23 20
18 15 8 2 6 6 1 4 4 7 7 6 4 6 9 4 3 5 4 7 6 10 8 5 5 4 9 3 5 5 4 6 4 3 3 4 3 1 6 8 9 15 18 17 18
15 9 2 5 4 4 2 6 13 10 8 7 7 6 10 8 9 7 8 6 10 7 11 7 0 7 8 3 4 5 5 7 3 3 4 1 3 7 7 6 8 13 16 17 18
8 4 6 6 3 5 4 6 4 5 6 2 2 2 4 7 7 7 7 4 3 7 3 1 2 3 8 9 1 2 3 2 5 5 1 4 4 2 9 11 14 13 13 15 17
19 9 8 3 1 3 9 12 5 3 5 7 6 9 5 5 4 5 5 10 2 3 4 3 4 4 8 5 6 4 10 6 3 3 2 3 3 7 14 15 12 11 15 20 27
8 4 10 9 8 5 6 6 10 6 3 5 3 10 6 4 7 3 5 8 8 7 7 4 0 2 4 8 7 6 2 11 2 3 5 5 2 8 7 2 15 20 24 22 23
3 6 10 4 8 10 11 8 11 9 3 1 3 5 6 4 4 6 5 6 9 7 5 4 1 4 7 11 14 15 12 10 2 4 5 8 3 8 1 7 19 20 20 20 19
7 8 11 15 15 6 4 5 9 10 6 7 6 8 8 5 6 7 5 6 5 3 4 4 3 4 4 10 13 16 11 13 7 7 5 15 12 11 15 21 22 19 16 15 14
10 11 7 9 11 6 5 7 6 9 7 10 10 5 7 9 16 14 4 1 3 1 1 1 3 5 4 6 9 6 5 6 10 16 10 11 7 14 10 17 13 12 12 13 13
Wind_Direction
21 159 185 187 181 177 185 190 187 181 154 127 335 315 309 298 285 265 238 264 306 291 307 245 255 297 285 277 280 272 317 267 271 320 108 165 196 203 176 123 107 144 115 134 130
51 86 113 125 133 148 173 178 166 155 138 59 329 319 315 310 292 241 251 269 293 292 276 294 299 268 238 252 257 250 221 261 275 320 142 162 176 179 155 117 116 116 125 136 141
70 87 94 94 89 84 94 152 159 152 139 344 328 323 321 319 313 264 229 274 305 293 266 294 316 304 254 253 245 248 228 256 286 29 7 140 142 157 162 116 131 134 145 152 171
76 82 83 77 65 51 47 100 161 161 159 339 328 329 311 303 340 207 304 312 283 276 238 263 276 273 276 242 249 237 246 249 290 50 356 290 173 135 92 139 141 139 149 155 170
74 75 62 49 41 29 20 174 184 189 281 327 332 335 322 291 271 272 317 168 192 271 288 276 278 260 252 258 278 213 239 293 71 58 316 1 115 118 100 125 136 144 148 163 134
50 44 36 21 4 353 334 266 229 230 277 313 329 338 320 278 199 125 112 211 309 295 301 295 281 333 303 294 322 288 233 264 57 66 292 37 60 108 123 117 131 140 154 158 143
18 12 13 12 5 348 321 278 244 242 268 297 318 326 294 262 9 292 12 272 291 296 301 322 346 342 318 321 310 302 6 324 174 196 198 96 338 125 146 147 144 147 164 153 141
8 16 34 42 19 346 320 279 244 239 252 282 302 310 277 304 252 228 255 262 254 269 282 312 322 315 302 302 304 1 355 299 270 201 166 129 251 310 152 146 151 164 181 149 153
18 57 68 31 4 345 327 281 241 238 247 264 289 305 271 237 203 213 259 283 301 241 282 284 296 288 296 306 331 298 239 249 261 211 154 120 216 151 154 160 175 188 185 164 145
43 81 51 18 10 15 29 14 303 243 250 276 271 294 267 255 156 285 242 290 281 282 279 247 237 228 304 327 244 257 245 271 266 212 131 164 209 173 172 175 182 194 191 156 152
34 48 21 5 7 20 347 329 333 265 224 221 229 241 330 239 305 242 201 255 254 257 257 259 168 225 237 239 243 279 343 306 21 72 129 202 206 192 184 187 188 198 208 169 160
357 318 348 4 351 342 329 327 338 306 302 269 263 264 283 311 264 192 247 248 260 244 253 276 210 237 302 339 355 343 339 314 314 168 74 36 344 327 185 197 198 204 220 160 148
357 313 305 303 289 293 303 330 340 325 280 296 230 237 230 228 271 158 180 304 293 278 280 254 265 38 3 340 333 312 325 353 328 106 148 201 302 272 275 210 199 183 107 154 152
359 331 295 294 316 325 318 347 340 337 324 244 190 235 171 229 268 251 341 298 303 288 358 310 67 56 351 305 328 6 12 15 356 15 303 62 274 354 351 314 94 89 92 143 150
357 341 318 305 324 352 7 339 329 320 318 151 173 141 199 214 147 156 257 310 297 321 6 274 355 26 346 26 30 294 34 356 334 328 4 345 34 308 32 4 3 339 90 136 141
353 343 273 300 311 347 341 321 315 2 253 153 148 186 217 212 244 158 187 199 279 296 299 273 266 138 324 2 338 339 349 348 335 321 346 128 67 295 334 171 115 281 210 144 127
342 330 262 270 336 354 319 320 12 229 327 172 182 172 207 204 217 179 87 335 287 285 313 332 327 104 72 347 339 2 34 350 350 1 257 135 151 225 67 76 57 6 61 86 83
340 319 273 252 346 336 336 352 258 276 301 46 13 349 329 349 152 58 153 291 295 89 47 37 347 9 59 340 27 323 213 156 295 321 279 115 152 249 78 76 68 71 72 79 87
337 319 263 256 342 308 327 293 248 320 30 359 348 301 263 234 46 7 254 262 59 47 90 7 295 334 326 257 67 309 331 233 205 297 18 144 354 8 327 42 58 72 77 69 61
334 334 297 204 227 337 13 259 280 289 40 352 336 337 334 78 225 272 16 39 48 50 60 348 327 325 297 14 261 265 219 12 2 30 339 352 111 221 60 46 59 59 51 53 52
334 330 259 197 289 296 222 261 313 74 39 22 10 351 342 0 2 1 43 49 24 19 4 17 62 303 327 40 328 12 348 43 314 154 182 292 220 149 126 80 54 52 62 53 45
360 310 21 330 300 244 235 271 245 343 61 323 343 301 311 9 360 8 22 90 28 29 31 2 252 290 275 313 191 59 13 259 134 280 90 152 279 126 96 83 71 64 56 51 57
337 285 279 289 276 292 324 324 169 8 11 359 8 25 23 11 4 2 3 141 169 91 93 338 346 8 344 353 27 58 305 299 83 74 182 124 233 35 35 53 39 39 39 58 59
333 305 339 250 305 338 6 321 349 104 88 313 339 349 336 331 302 249 237 152 81 92 109 96 298 188 214 267 291 285 171 298 225 137 218 217 50 11 26 42 50 41 61 47 42
286 320 358 332 353 1 1 347 332 321 334 118 70 325 309 295 302 324 6 117 98 129 154 137 192 299 309 312 307 302 318 313 300 275 165 205 149 199 23 55 67 59 47 34 29
324 343 333 312 332 318 306 292 293 307 44 3 20 4 3 54 17 24 30 34 102 263 20 359 278 316 304 306 318 316 319 288 348 326 52 98 89 91 65 82 71 60 44 34 39
351 347 3 298 314 322 275 272 278 57 12 341 21 43 355 14 348 337 31 352 280 256 28 41 16 352 264 320 323 336 287 338 58 34 52 69 70 44 54 81 69 78 51 42 24